This is the latest recevied weather packets stored in our database for station/object KD0OXW. If no packets are shown the sender has not sent any weather packets the latest 10 day(s).
| Time | Temp. | Humidity | Pressure | Rain* | Wind** | Luminosity | Snow |
|---|---|---|---|---|---|---|---|
| 1778186581 | 10.56° C | 34% | 1010.2 hPa | 0 mm | - | - | - |
| 1778186282 | 10° C | 35% | 1010.2 hPa | 0 mm | - | - | - |
| 1778185981 | 10° C | 34% | 1010.3 hPa | 0 mm | - | - | - |
| 1778185681 | 10° C | 33% | 1010.3 hPa | 0 mm | - | - | - |
| 1778185381 | 10.56° C | 33% | 1010.5 hPa | 0 mm | - | - | - |
| 1778185081 | 10.56° C | 35% | 1010.4 hPa | 0 mm | - | - | - |
| 1778184781 | 10.56° C | 35% | 1010.5 hPa | 0 mm | - | - | - |
| 1778184481 | 10.56° C | 34% | 1010.6 hPa | 0 mm | - | - | - |
| 1778184182 | 10.56° C | 33% | 1010.8 hPa | 0 mm | - | - | - |
| 1778183882 | 10° C | 35% | 1010.7 hPa | 0 mm | - | - | - |
| 1778183582 | 9.44° C | 36% | 1010.8 hPa | 0 mm | - | - | - |
| 1778183282 | 9.44° C | 37% | 1010.9 hPa | 0 mm | - | - | - |
| 1778182981 | 9.44° C | 35% | 1011 hPa | 0 mm | - | - | - |
| 1778182682 | 9.44° C | 35% | 1011 hPa | 0 mm | - | - | - |
| 1778182382 | 9.44° C | 35% | 1011 hPa | 0 mm | - | - | - |
| 1778182082 | 9.44° C | 35% | 1011 hPa | 0 mm | - | - | - |
| 1778181782 | 9.44° C | 34% | 1011 hPa | 0 mm | - | - | - |
| 1778181482 | 9.44° C | 36% | 1011.1 hPa | 0 mm | - | - | - |
| 1778181182 | 9.44° C | 34% | 1011.1 hPa | 0 mm | - | - | - |
| 1778180882 | 10° C | 33% | 1011.2 hPa | 0 mm | - | - | - |
| 1778180582 | 10° C | 34% | 1011.1 hPa | 0 mm | - | - | - |
| 1778180282 | 9.44° C | 40% | 1011.1 hPa | 0 mm | - | - | - |
| 1778179982 | 8.89° C | 38% | 1011.2 hPa | 0 mm | - | - | - |
| 1778179682 | 8.89° C | 37% | 1011.4 hPa | 0 mm | - | - | - |
| 1778179382 | 8.89° C | 37% | 1011.5 hPa | 0 mm | - | - | - |
* Rain latest hour (hover to see other rain measurements)
** Current wind speed in m/s (hover to see current wind gust speed)